DTUSAT-2
1 40030U 14033W 18206.70258789 +.00000205 +00000-0 +28206-4 0 9990
2 40030 097.8980 120.6661 0013292 057.2170 303.0325 14.88349200221955
EO-80
1 40032U 14033Y 18206.82936804 +.00000205 +00000-0 +28174-4 0 9990
2 40032 097.8987 120.7951 0013232 057.4151 302.8341 14.88286989221951
ANTELSAT
1 40034U 14033AA 18206.89982999 +.00000159 +00000-0 +31045-4 0 9994
2 40034 097.8061 082.1106 0060358 073.6834 287.1002 14.73946245219855
VELOX-1
1 40057U 14034E 18206.77680964 +.00000256 +00000-0 +43601-4 0 9993
2 40057 098.2071 318.4992 0010373 198.6870 161.3956 14.77456811219348
DAURIA DX 1
1 40071U 14037C 18206.79037849 +.00000071 +00000-0 +16612-4 0 9999
2 40071 098.3809 339.8844 0008153 189.5983 170.5080 14.81174388218715
UKUBE-1
1 40074U 14037F 18206.85890060 +.00000282 +00000-0 +41129-4 0 9996
2 40074 098.3913 346.0808 0004313 179.7981 180.3210 14.83831053219038
HODOYOSHI-1
1 40299U 14070B 18206.89410848 +.00000498 +00000-0 +24150-4 0 9992
2 40299 097.3769 287.9834 0014633 111.8512 338.9076 15.22957042206375
CHUBUSAT-1
1 40300U 14070C 18206.83217625 +.00000630 +00000-0 +30779-4 0 9999
2 40300 097.3611 283.6997 0021138 124.3049 009.1598 15.21633867206156
QSAT-EOS
1 40301U 14070D 18206.78609390 +.00001550 +00000-0 +64562-4 0 9997
2 40301 097.3578 285.1082 0027839 114.7935 033.6762 15.24885060206301
FIREBIRD FU3
1 40377U 15003B 18206.69974910 +.00001798 +00000-0 +76382-4 0 9997
2 40377 099.0834 116.0786 0131982 102.4543 259.1490 15.17353624192153
FIREBIRD FU4
1 40378U 15003C 18206.68837187 +.00001792 +00000-0 +76064-4 0 9992
2 40378 099.0837 116.1247 0132204 102.3759 259.2303 15.17362421192166
GRIFEX
1 40379U 15003D 18206.79709116 +.00001217 +00000-0 +56753-4 0 9990
2 40379 099.0859 112.2066 0139106 115.1545 246.4185 15.14433788191932
NO-84
1 40654U 15025D 18206.38082188 +.00005310 +00000-0 +89769-4 0 03634
2 40654 054.9906 223.6717 0154226 205.4683 153.8621 15.41363546061731
NO-83
1 40655U 15025E 18206.36316452 +.00011378 +00000-0 +11974-3 0 04204
2 40655 054.9721 162.2919 0099555 242.3940 116.6922 15.58909703062234
DEORBITSAIL
1 40719U 15032E 18206.67812905 +.00000311 +00000-0 +51981-4 0 9990
2 40719 097.9408 099.5611 0015040 286.6062 073.3496 14.76473299163858
NUDT-PHONESAT
1 40900U 15049B 18206.91253481 +.00001654 +00000-0 +76585-4 0 9993
2 40900 097.4406 214.7202 0011648 251.5775 108.4195 15.21479730157803
XW-2A
1 40903U 15049E 18206.95365319 +.00001521 +00000-0 +39364-4 0 9991
2 40903 097.3814 242.1916 0012436 247.6272 112.3657 15.40645421159777
XW-2C
1 40906U 15049H 18206.95095664 +.00000481 +00000-0 +29067-4 0 9990
2 40906 097.4600 209.7336 0013362 254.0041 105.9720 15.15247607157362
XW-2D
1 40907U 15049J 18206.96552636 +.00000521 +00000-0 +31048-4 0 9996
2 40907 097.4575 209.4406 0012739 251.3237 108.6613 15.15402863157372
LILACSAT-2
1 40908U 15049K 18206.95328007 +.00000296 +00000-0 +20140-4 0 9999
2 40908 097.4687 208.7368 0014402 254.1199 105.8445 15.13545960157234
XW-2F
1 40910U 15049M 18206.94923893 +.00000786 +00000-0 +43573-4 0 9994
2 40910 097.4574 210.8102 0013460 246.2240 113.7581 15.16622776157451
XW-2B
1 40911U 15049N 18206.85241497 +.00000529 +00000-0 +31527-4 0 9999
2 40911 097.4609 209.8816 0012647 252.4370 107.5481 15.15345363157251
DCBB
1 40912U 15049P 18206.95795649 +.00000937 +00000-0 +48197-4 0 9998
2 40912 097.4501 213.7384 0013877 231.8124 213.6279 15.18850997157555
TW-1C
1 40926U 15051B 18206.89187691 +.00007322 +00000-0 +13375-3 0 9995
2 40926 097.1797 249.0615 0011205 126.6266 319.7906 15.49630509159303
TW-1A
1 40928U 15051D 18206.90337185 +.00002035 +00000-0 +54880-4 0 9997
2 40928 097.1827 240.1254 0011778 172.3482 310.7491 15.38890709158737
IO-86
1 40931U 15052B 18206.69384054 +.00000727 +00000-0 +12207-4 0 9998
2 40931 005.9988 235.5361 0013564 195.5576 164.4001 14.76580740152703
LQSat
1 40958U 15057A 18206.88441999 -.00000006 +00000-0 +68397-5 0 9998
2 40958 097.9383 279.1711 0017333 209.3838 150.6383 14.73039170150552
AO-85
1 40967U 15058D 18206.28491157 +.00000030 +00000-0 +21501-4 0 03999
2 40967 064.7774 075.6099 0210215 302.0465 056.0369 14.75748410059273
ATHENOXAT-1
1 41168U 15077C 18206.78799218 +.00001699 +00000-0 +55989-4 0 9993
2 41168 014.9834 097.7465 0011977 214.9063 193.1108 15.12865304144231
ChubuSat-2
1 41338U 16012B 18206.90981173 +.00000282 +00000-0 +15351-4 0 9995
2 41338 031.0040 067.6217 0013662 096.9831 263.2359 15.00001436133650
ChubuSat-3
1 41339U 16012C 18206.78567595 +.00000259 +00000-0 +13444-4 0 9995
2 41339 031.0122 066.9519 0013396 102.7775 257.4371 15.00187365133628
Horyu-4
1 41340U 16012D 18206.88993913 +.00000428 +00000-0 +26029-4 0 9996
2 41340 031.0060 060.6664 0013882 117.6839 242.5206 15.01018627133716
OUFTI-1
1 41458U 16025C 18206.74054765 +.00000676 +00000-0 +39289-4 0 9995
2 41458 098.1338 271.6458 0170033 018.8921 341.8495 15.04800753123230
e-st@r-II
1 41459U 16025D 18206.75445460 +.00000969 +00000-0 +54477-4 0 9994
2 41459 098.1346 271.4860 0171159 019.7965 340.9775 15.04530109123228
AAUSAT4
1 41460U 16025E 18206.62915868 +.00001889 +00000-0 +10060-3 0 9997
2 41460 098.1286 271.9166 0162186 015.8616 344.7583 15.06017881123270
LO-87
1 41557U 16033B 18206.81034608 +.00001058 +00000-0 +41687-4 0 9996
2 41557 097.4367 290.9484 0014766 027.9949 332.2081 15.27761960120051
NuSat2
1 41558U 16033C 18206.80451634 +.00001093 +00000-0 +42325-4 0 9997
2 41558 097.4389 291.0748 0013801 026.8358 333.3592 15.28293758120046
Lapan A3
1 41603U 16040E 18206.93195867 +.00000010 +00000-0 +36756-5 0 9993
2 41603 097.4096 267.7470 0015155 103.7113 015.6404 15.19584351115961
Swayam
1 41607U 16040J 18206.64098644 +.00001338 +00000-0 +60894-4 0 9993
2 41607 097.4107 269.0902 0015494 102.6984 257.5985 15.22346509115958
Pratham
1 41783U 16059A 18206.84978893 +.00000032 +00000-0 +15641-4 0 9993
2 41783 098.1149 267.7792 0032950 336.4602 023.5090 14.62933598097612
AlSat 1N
1 41789U 16059G 18206.91127443 +.00000031 +00000-0 +15130-4 0 9996
2 41789 098.1161 269.1416 0027764 328.3351 031.6161 14.64167653097688
ScatSat
1 41790U 16059H 18206.72640939 +.00000010 +00000-0 +13792-4 0 9996
2 41790 098.2568 253.8110 0017737 337.4876 022.5539 14.50862672096770
TY-1
1 41844U 16066D 18206.83532672 +.00001142 +00000-0 +50957-4 0 9991
2 41844 097.4053 213.2880 0013788 261.5086 221.1807 15.23363454094763
Pegasus-1
1 41846U 16066F 18206.89349891 +.00000262 +00000-0 +49466-4 0 9993
2 41846 098.7517 236.1423 0369172 131.9739 231.3528 14.37367656089463
CAS-2T
1 41847U 16066G 18206.66306615 +.00000060 +00000-0 +18822-4 0 9994
2 41847 098.7476 236.3670 0367152 130.0803 233.3191 14.37908024089853
TO-89
1 41932U 98067KU 18206.88079470 +.00034127 +00000-0 +19222-3 0 9995
2 41932 051.6309 141.0559 0003579 023.6680 336.4485 15.78854549086877
AOBA-V3LOX3
1 41935U 98067KX 18206.84550962 +.00052855 +00000-0 +23035-3 0 9999
2 41935 051.6337 135.5022 0003015 038.2722 321.8495 15.84208066087041
